TimeEST,TemperatureF,Dew PointF,Humidity,Sea Level PressureIn,VisibilityMPH,Wind Direction,Wind SpeedMPH,Gust SpeedMPH,PrecipitationIn,Events,Conditions,WindDirDegrees,DateUTC
12:53 AM,41.0,34.0,76,30.32,10.0,ENE,4.6,-,N/A,,Clear,60,2013-11-04 05:53:00
1:53 AM,43.0,34.0,71,30.32,10.0,Calm,Calm,-,N/A,,Clear,0,2013-11-04 06:53:00
2:53 AM,42.1,34.0,73,30.34,10.0,North,3.5,-,N/A,,Clear,350,2013-11-04 07:53:00
3:53 AM,41.0,35.1,79,30.33,10.0,NNE,5.8,-,N/A,,Clear,30,2013-11-04 08:53:00
4:53 AM,37.0,33.1,86,30.36,10.0,ENE,3.5,-,N/A,,Clear,60,2013-11-04 09:53:00
5:53 AM,37.9,34.0,86,30.38,10.0,Calm,Calm,-,N/A,,Clear,0,2013-11-04 10:53:00
6:53 AM,37.0,34.0,89,30.38,10.0,Calm,Calm,-,N/A,,Mostly Cloudy,0,2013-11-04 11:53:00
7:53 AM,41.0,34.0,76,30.42,10.0,Calm,Calm,-,N/A,,Mostly Cloudy,0,2013-11-04 12:53:00
8:53 AM,45.0,37.0,74,30.41,10.0,Calm,Calm,-,N/A,,Mostly Cloudy,0,2013-11-04 13:53:00
9:53 AM,50.0,37.0,61,30.41,10.0,ENE,3.5,-,N/A,,Mostly Cloudy,60,2013-11-04 14:53:00
10:53 AM,54.0,37.0,53,30.42,10.0,Calm,Calm,-,N/A,,Mostly Cloudy,0,2013-11-04 15:53:00
11:53 AM,57.9,37.0,46,30.42,10.0,Calm,Calm,-,N/A,,Mostly Cloudy,0,2013-11-04 16:53:00
12:53 PM,61.0,37.0,41,30.39,10.0,Variable,5.8,-,N/A,,Scattered Clouds,0,2013-11-04 17:53:00
1:53 PM,63.0,36.0,37,30.36,10.0,Variable,3.5,-,N/A,,Scattered Clouds,0,2013-11-04 18:53:00
2:53 PM,64.9,36.0,34,30.35,10.0,Calm,Calm,-,N/A,,Scattered Clouds,0,2013-11-04 19:53:00
3:53 PM,64.0,37.0,37,30.33,10.0,Calm,Calm,-,N/A,,Mostly Cloudy,0,2013-11-04 20:53:00
4:53 PM,64.0,37.0,37,30.33,10.0,NNW,3.5,-,N/A,,Mostly Cloudy,330,2013-11-04 21:53:00
5:53 PM,60.1,39.0,46,30.33,10.0,Calm,Calm,-,N/A,,Mostly Cloudy,0,2013-11-04 22:53:00
6:53 PM,59.0,37.9,46,30.35,10.0,ENE,3.5,-,N/A,,Mostly Cloudy,60,2013-11-04 23:53:00
7:53 PM,55.0,39.0,55,30.36,10.0,Calm,Calm,-,N/A,,Mostly Cloudy,0,2013-11-05 00:53:00
8:53 PM,54.0,39.9,59,30.37,10.0,WSW,4.6,-,N/A,,Mostly Cloudy,240,2013-11-05 01:53:00
9:53 PM,53.1,39.0,59,30.37,10.0,WSW,5.8,-,N/A,,Overcast,250,2013-11-05 02:53:00
10:53 PM,50.0,41.0,71,30.38,9.0,Calm,Calm,-,N/A,,Overcast,0,2013-11-05 03:53:00
11:53 PM,48.0,41.0,77,30.40,9.0,Calm,Calm,-,N/A,,Mostly Cloudy,0,2013-11-05 04:53:00